West Point Lake Weather Center

Moon Phase Calendar



West Point Lake Water Level
Online Cameras

 


      

Current Conditions in Rockwell Estates
7/7/2022 7:03:00 AM

75°F
Feels Like 77
Clear
Humidity
94%
Pressure
30.03"
Wind
0
Dew Point
73°F
UV Index
0/10 (Low)
Visibility
6 mi

Hourly Forecast

Date & Time Thu, Jul 7
7:00 AM
Thu, Jul 7
8:00 AM
Thu, Jul 7
9:00 AM
Thu, Jul 7
10:00 AM
Thu, Jul 7
11:00 AM
Thu, Jul 7
12:00 PM
Thu, Jul 7
1:00 PM
Thu, Jul 7
2:00 PM
Thu, Jul 7
3:00 PM
Thu, Jul 7
4:00 PM
Thu, Jul 7
5:00 PM
Thu, Jul 7
6:00 PM
Thu, Jul 7
7:00 PM
Thu, Jul 7
8:00 PM
Thu, Jul 7
9:00 PM
Thu, Jul 7
10:00 PM
Thu, Jul 7
11:00 PM
Fri, Jul 8
12:00 AM
Fri, Jul 8
1:00 AM
Fri, Jul 8
2:00 AM
Fri, Jul 8
3:00 AM
Fri, Jul 8
4:00 AM
Fri, Jul 8
5:00 AM
Fri, Jul 8
6:00 AM
Fri, Jul 8
7:00 AM
Fri, Jul 8
8:00 AM
Fri, Jul 8
9:00 AM
Fri, Jul 8
10:00 AM
Fri, Jul 8
11:00 AM
Fri, Jul 8
12:00 PM
Fri, Jul 8
1:00 PM
Fri, Jul 8
2:00 PM
Fri, Jul 8
3:00 PM
Fri, Jul 8
4:00 PM
Fri, Jul 8
5:00 PM
Fri, Jul 8
6:00 PM
Fri, Jul 8
7:00 PM
Fri, Jul 8
8:00 PM
Fri, Jul 8
9:00 PM
Fri, Jul 8
10:00 PM
Fri, Jul 8
11:00 PM
Sat, Jul 9
12:00 AM
Sat, Jul 9
1:00 AM
Sat, Jul 9
2:00 AM
Sat, Jul 9
3:00 AM
Sat, Jul 9
4:00 AM
Sat, Jul 9
5:00 AM
Sat, Jul 9
6:00 AM
Condition
Clear

Clear

Clouds

Clouds

Clouds

Clouds

Clouds

Clouds

Clouds

Clouds

Clouds

Clouds

Clouds

Clouds

Clouds

Clouds

Clouds

Clouds

Clouds

Clouds

Clouds

Clouds

Clouds

Clouds

Clouds

Clouds

Clear

Clear

Clear

Clouds

Clouds

Clouds

Clouds

Clouds

Clouds

Clouds

Clouds

Clouds

Clouds

Clouds

Clouds

Rain

Clouds

Clouds

Clouds

Clouds

Clouds

Clouds
Temperature 75°F75°F77°F81°F87°F93°F96°F95°F90°F88°F88°F88°F87°F85°F83°F81°F80°F79°F79°F79°F78°F78°F77°F77°F76°F79°F84°F88°F91°F94°F95°F94°F90°F87°F89°F92°F90°F85°F83°F82°F81°F80°F78°F77°F76°F76°F76°F75°F
Feels Like 77°F77°F79°F87°F94°F100°F102°F100°F97°F96°F95°F95°F94°F91°F88°F85°F80°F79°F79°F79°F79°F79°F78°F78°F77°F79°F89°F94°F98°F99°F101°F99°F96°F93°F95°F97°F96°F91°F88°F86°F85°F80°F80°F79°F78°F77°F77°F77°F
Cloudiness 0%6%25%35%33%31%27%35%93%94%94%95%94%93%82%76%64%55%55%54%51%49%40%36%31%26%3%3%7%25%26%37%96%98%97%89%84%82%86%89%85%86%88%90%50%45%47%49%
Visibility 6 mi6 mi6 mi6 mi6 mi6 mi6 mi6 mi6 mi6 mi6 mi6 mi6 mi6 mi6 mi6 mi6 mi6 mi6 mi6 mi6 mi6 mi6 mi6 mi6 mi6 mi6 mi6 mi6 mi6 mi6 mi6 mi6 mi6 mi6 mi6 mi6 mi6 mi6 mi6 mi6 mi6 mi6 mi6 mi6 mi6 mi6 mi6 mi
Precipitation 0%4%2%0%16%18%20%20%4%3%1%0%0%0%0%0%2%2%4%5%3%11%16%16%27%27%0%11%11%15%15%15%3%6%1%1%1%1%13%24%28%34%30%24%0%14%7%7%
Humidity 94%92%87%76%62%47%42%41%54%59%59%58%60%66%69%69%72%72%71%73%75%76%79%79%81%76%66%58%51%45%42%44%54%61%57%48%52%64%67%68%71%76%81%83%85%86%86%86%
Dew Point 73°F73°F73°F73°F72°F70°F69°F68°F71°F71°F72°F71°F72°F72°F71°F70°F70°F69°F69°F69°F69°F69°F69°F69°F70°F71°F71°F71°F70°F69°F68°F69°F71°F71°F71°F69°F70°F72°F71°F70°F70°F71°F72°F72°F71°F71°F71°F71°F
Pressure 30.03"30.03"30.03"30.03"30.03"30"30"29.97"29.97"29.97"29.94"29.94"29.91"29.94"29.94"29.94"29.97"29.97"29.97"29.97"29.97"29.97"29.97"29.97"30"30"30.03"30.03"30.03"30.03"30.03"30"30"30"29.97"29.94"29.94"29.94"29.97"29.97"30"30.03"30"30"30"29.97"29.97"30"
Wind Speed 2.8 mph2.6 mph3.5 mph3.8 mph4 mph4 mph4.2 mph4.4 mph5.1 mph3.8 mph3.2 mph4.7 mph5.9 mph4.4 mph3.6 mph4 mph2.6 mph3.2 mph3.1 mph2.7 mph2.8 mph3 mph2.8 mph2.6 mph3 mph3 mph4.2 mph5.2 mph6.1 mph6.6 mph6.7 mph5.2 mph3.9 mph2.4 mph0.7 mph3.7 mph6 mph4.3 mph4 mph3.5 mph3.8 mph4.4 mph5 mph5.2 mph5.4 mph5 mph4.9 mph4.3 mph
Wind
Direction
279°
W
275°
W
269°
W
281°
W
291°
WNW
297°
WNW
300°
WNW
295°
WNW
295°
WNW
293°
WNW
277°
W
272°
W
280°
W
278°
W
269°
W
270°
W
287°
WNW
304°
NW
270°
W
243°
WSW
249°
WSW
236°
SW
232°
SW
263°
W
270°
W
253°
WSW
253°
WSW
264°
W
273°
W
278°
W
294°
WNW
306°
NW
282°
WNW
287°
WNW
35°
NE
299°
WNW
289°
WNW
264°
W
263°
W
245°
WSW
211°
SSW
192°
SSW
190°
S
209°
SSW
216°
SW
224°
SW
231°
SW
230°
SW

Daily Forecast

Date High Low Precip. Humidity
Today
Jul 7

Rain
96 °F
75 °F
57%
42%
Friday
Jul 8

Clouds
95 °F
76 °F
28%
42%
Saturday
Jul 9

Rain
95 °F
72 °F
100%
44%
Sunday
Jul 10

Rain
91 °F
71 °F
100%
50%
Monday
Jul 11

Rain
85 °F
72 °F
79%
68%
Tuesday
Jul 12

Rain
89 °F
72 °F
96%
53%
Wednesday
Jul 13

Rain
93 °F
71 °F
46%
43%
Thursday
Jul 14

Rain
76 °F
70 °F
92%
88%
Friday
Jul 15

Rain
70 °F
68 °F
100%
97%
Saturday
Jul 16

Rain
83 °F
67 °F
53%
74%
Sunday
Jul 17

Rain
83 °F
67 °F
95%
69%
Monday
Jul 18

Clouds
92 °F
68 °F
0%
42%
Tuesday
Jul 19

Clouds
94 °F
75 °F
0%
38%
Wednesday
Jul 20

Clouds
96 °F
75 °F
3%
36%
Thursday
Jul 21

Clouds
96 °F
73 °F
20%
40%
Friday
Jul 22

Rain
86 °F
74 °F
71%
66%

Temperature 8-14 Day Outlook



Precipitation 8-14 Day Outlook




Quick Links
West Point Lake News
West Point Lake Photos
West Point Lake Videos




About Us
Contact Us
Site Map
Search Site
Advertise With Us
   
www.WestPointLake.info
THE WEST POINT LAKE WEBSITE

Copyright 2022, Lakes Online
Privacy    |    Legal